DW6277 Weather Reports


Display with metric or nautical units.
time (UTC)temp
F
wind
direction
speed
MPH
gust
MPH
rain 1hr
in
rain 24hr
in
rain mn
in
humidity
%
barometer
mb
20260504045905 75 89 0.0 2.0 0.00 0.00 0.00 83 1014.0
20260504043719 75 74 1.0 3.0 0.00 0.00 0.00 82 1014.1
20260504042647 75 150 1.0 3.0 0.00 0.00 0.00 82 1014.2
20260504041636 75 144 1.0 3.0 0.00 0.00 0.00 82 1014.2
20260504040631 74 129 1.0 3.0 0.00 0.00 0.00 82 1014.3
20260504035600 74 165 1.0 4.0 0.00 0.00 0.00 81 1014.5
20260504034602 74 157 2.0 4.0 0.00 0.00 0.00 81 1014.6
20260504033613 75 165 2.0 4.0 0.00 0.00 0.00 82 1014.5
20260504032552 75 142 2.0 4.0 0.00 0.00 0.00 82 1014.7
20260504030407 75 164 2.0 5.0 0.00 0.00 0.00 81 1014.9
20260504025336 75 96 1.0 5.0 0.00 0.00 0.00 79 1015.0
20260504024357 76 39 2.0 5.0 0.00 0.00 0.00 78 1015.1
20260504023334 76 69 1.0 5.0 0.00 0.00 0.00 78 1015.2
20260504021247 76 139 2.0 6.0 0.00 0.00 0.00 75 1015.6
20260504020303 75 91 1.0 5.0 0.00 0.00 0.00 75 1015.8
20260504015311 76 79 2.0 5.0 0.00 0.00 0.00 76 1016.1
20260504014323 76 86 2.0 5.0 0.00 0.00 0.00 76 1016.2
20260504013347 77 101 2.0 5.0 0.00 0.00 0.00 73 1016.4
20260504012338 77 122 1.0 5.0 0.00 0.00 0.00 72 1016.4
20260504011309 77 68 1.0 8.0 0.00 0.00 0.00 70 1016.5
20260504010250 77 49 2.0 8.0 0.00 0.00 0.00 67 1016.6
20260504005227 77 8 2.0 7.0 0.00 0.00 0.00 65 1016.7
20260504004226 76 324 2.0 6.0 0.00 0.00 0.00 69 1016.8
20260504003218 75 56 3.0 6.0 0.00 0.00 0.00 71 1016.8
20260504001109 76 328 1.0 5.0 0.00 0.00 0.00 71 1016.9
20260504000045 75 319 2.0 5.0 0.00 0.00 0.00 73 1016.9
20260503235109 74 48 2.0 5.0 0.00 0.00 0.00 76 1017.0
20260503234055 74 41 1.0 6.0 0.00 0.00 0.00 77 1017.0
20260503233024 73 49 1.0 8.0 0.00 0.00 0.00 78 1017.0
20260503232006 72 348 1.0 8.0 0.00 0.00 0.00 78 1017.0
20260503231015 71 49 1.0 4.0 0.00 0.00 0.00 80 1016.9
20260503230034 71 338 1.0 4.0 0.00 0.00 0.00 82 1016.9
20260503225053 70 321 0.0 3.0 0.00 0.00 0.00 86 1016.9
20260503224038 69 329 0.0 3.0 0.00 0.00 0.00 89 1016.8
20260503223033 67 359 1.0 4.0 0.00 0.00 0.00 90 1017.0
20260503220903 65 275 0.0 3.0 0.00 0.00 0.00 92 1017.1
20260503215842 64 318 0.0 3.0 0.00 0.00 0.00 93 1017.1
20260503214835 63 317 1.0 4.0 0.00 0.00 0.00 94 1017.1
20260503213843 63 318 1.0 4.0 0.00 0.00 0.00 94 1017.0
20260503211642 62 323 0.0 3.0 0.00 0.00 0.00 94 1016.7
20260503210645 62 286 0.0 0.0 0.00 0.00 0.00 94 1016.5
20260503204531 62 327 0.0 1.0 0.00 0.00 0.00 94 1016.1
20260503203502 62 326 0.0 0.0 0.00 0.00 0.00 93 1016.1
20260503202434 62 326 0.0 0.0 0.00 0.00 0.00 93 1016.1
20260503201427 62 326 0.0 1.0 0.00 0.00 0.00 93 1016.1
20260503200430 62 326 0.0 0.0 0.00 0.00 0.00 92 1015.9
20260503195402 62 276 0.0 1.0 0.00 0.00 0.00 92 1015.7
20260503194327 62 316 0.0 1.0 0.00 0.00 0.00 92 1015.7
20260503193318 62 316 0.0 0.0 0.00 0.00 0.00 92 1015.5
20260503192306 62 316 0.0 0.0 0.00 0.00 0.00 91 1015.4
20260503190110 63 319 0.0 3.0 0.00 0.00 0.00 91 1015.4
20260503185043 63 315 0.0 2.0 0.00 0.00 0.00 91 1015.4
20260503184034 63 314 0.0 3.0 0.00 0.00 0.00 91 1015.3
20260503183015 63 311 1.0 4.0 0.00 0.00 0.00 91 1015.3
20260503182002 64 326 1.0 4.0 0.00 0.00 0.00 91 1015.3
20260503180928 64 316 1.0 3.0 0.00 0.00 0.00 90 1015.4
20260503175905 64 319 0.0 3.0 0.00 0.00 0.00 90 1015.3
20260503174913 64 324 0.0 3.0 0.00 0.00 0.00 90 1015.3
20260503173928 64 332 1.0 4.0 0.00 0.00 0.00 90 1015.4
20260503171831 65 321 0.0 3.0 0.00 0.00 0.00 90 1015.6
20260503170849 65 293 0.0 3.0 0.00 0.00 0.00 90 1015.6
20260503150509 67 321 2.0 4.0 0.00 0.00 0.00 87 1016.5
20260503131150 69 15 1.0 6.0 0.00 0.00 0.00 84 1017.6
20260503100245 71 19 1.0 7.0 0.00 0.00 0.00 82 1017.8
20260503080724 73 352 5.0 13.0 0.00 0.00 0.00 81 1017.8
20260503071446 74 19 3.0 9.0 0.00 0.00 0.00 80 1017.4
20260503070426 74 15 5.0 10.0 0.00 0.00 0.00 80 1017.3